View from above orbital plane
|
View from above satellite
|
Ground track
|
The orbit data is extracted from the following two-line orbital elements,
1 51U 60009C 19348.92638913 -.00000087 00000-0 -21779-4 0 9994
2 51 47.2103 201.3909 0106083 333.1053 26.4263 12.18273948641464
Epoch (UTC): | 14 December 2019 22:14:00 |
Eccentricity: | 0.0106083 |
inclination: | 47.2103° |
perigee height: | 1515 km |
apogee height: | 1684 km |
right ascension of ascending node: | 201.3909° |
argument of perigee: | 333.1053° |
revolutions per day: | 12.18273948 |
mean anomaly at epoch: | 26.4263° |
orbit number at epoch: | 64146 |
The dashed part of the orbit path shows where the satellite is in the earth's shadow,
|
|